Regional Weather Roundup
Issued by NWS Cleveland, OH

Home | Current Version | Previous Version | Graphics & Text | Print | Product List | Glossary On
Versions: 1 2 3 4 5 6 7 8 9 10 11 12 13 14 15 16 17 18 19 20 21 22 23 24 25 26 27 28 29 30 31 32 33 34 35 36 37 38 39 40 41 42 43 44 45 46 47 48 49 50
000
ASUS41 KCLE 171900
RWRCLE
OHIO REGIONAL WEATHER ROUNDUP
NATIONAL WEATHER SERVICE WILMINGTON, OH
300 PM EDT THU APR 17 2014

NOTE: "FAIR" INDICATES FEW OR NO CLOUDS BELOW 12,000 FEET WITH NO
SIGNIFICANT WEATHER AND/OR OBSTRUCTIONS TO VISIBILITY.

OHZ001>008-015>018-024>027-034-035-043-044-172000-
   NORTHWEST OHIO

CITY           SKY/WX    TMP DP  RH WIND       PRES   REMARKS
DEFIANCE       SUNNY     67  26  21 SW20G29   30.25F
FINDLAY        SUNNY     66  34  30 SW18      30.27F
TOLEDO EXPRESS SUNNY     65  29  25 SW10G21   30.26F
TOLEDO METCALF SUNNY     65  30  27 S15G23    30.27F
LIMA           SUNNY     66  36  32 S15G23    30.28F
$$

OHZ009>014-019>023-028>033-038-089-172000-
   NORTHEAST OHIO

CITY           SKY/WX    TMP DP  RH WIND       PRES   REMARKS
CLE-HOPKINS    MOSUNNY   63  32  31 SW15G21   30.35F
CLE-LAKEFRONT  SUNNY     62  31  31 SW13G22   30.31F
CUY CO. ARPT   MOSUNNY   61  30  31 S15G23    30.34F
LORAIN-ELYRIA  SUNNY     65  33  30 S10       30.32F
ASHTABULA      SUNNY     60  30  32 S16       30.36F
AKRON-CANTON   MOSUNNY   61  31  32 S18       30.35F
WOOSTER        NOT AVBL
MANSFIELD      SUNNY     62  33  33 S16G22    30.32F
YOUNGSTOWN     MOSUNNY   61  27  27 S8G17     30.37F
$$

OHZ042-051>053-060>062-070>072-077>081-172000-
  SOUTHWEST OHIO

CITY           SKY/WX    TMP DP  RH WIND       PRES   REMARKS
CINC-COVINGTON MOSUNNY   65  34  31 SW13G20   30.32F
CINC-LUNKEN    SUNNY     65  36  34 VRB7      30.32F
HAMILTON       SUNNY     69  35  28 VRB6G17   30.32F
DAYTON         NOT AVBL
WRIGHT-PAT AFB SUNNY     66  33  29 S12G28    30.31F
DAYTON GENERAL SUNNY     65  35  33 SW10G18   30.31F
WILMINGTON     SUNNY     64  34  32 S9G17     30.32F
$$

OHZ036-037-039>041-045>050-054>059-063>069-073>076-082>088-172000-
  CENTRAL AND SOUTHEAST OHIO

CITY           SKY/WX    TMP DP  RH WIND       PRES   REMARKS
COLUMBUS       MOSUNNY   66  31  27 S15       30.33F
OSU AIRPORT    SUNNY     65  32  29 S10       30.32F
BOLTON FIELD   SUNNY     64  36  34 S15G21    30.33F
RICKENBACK AFB NOT AVBL
NEWARK         SUNNY     64  31  28 SW9       30.34F
MARION         SUNNY     64  32  30 SW17G24   30.31F
LANCASTER      SUNNY     65  32  29 SW12G22   30.35F
ZANESVILLE     SUNNY     64  28  25 SW7G17    30.36F
NEW PHILLY     SUNNY     63  28  26 MISG      30.37F
$$



USA.gov is the U.S. government's official web portal to all federal, state and local government web resources and services.